Карточка аэропорта USHH

Внимание!
Информация на этой странице в стадии наполнения.
Если вы не увидели какой-то информации, или заметили неточность - пожалуйста сообщите нам!
Спасибо!
Команда RU-STAFF
Название аэропортаХанты-Мансийск
Название аэропорта (англ.)Khanty-Mansiysk
Превышение141 ft. (43 m.)
Координаты61°1.7039999999999', 69°5.1599999999999'
Высота перехода3000ft
Эшелон переходаQNH>=1013hPa:FL040; QNH>=977hPa:FL050; QNH<=977hPa:FL060
Коды ответчика5150-5177
Зона ОрВДТюмень РПИ (USTV)
Данные METARUSHH 201530Z 05002MPS CAVOK 01/M05 Q1021 R06/010060 NOSIG
Проноз погоды (TAF)USHH 201335Z 2015/2115 12003G08MPS 9999 BKN017 TEMPO 2015/2021 5000 -RASN BR OVC016 TEMPO 2021/2103 0500 FG VV002 BECMG 2101/2103 34003G09MPS
NOTAMshow/hide NOTAM
AWOS   TABLE

Информация о ВПП

ВПП Длина ВПП (м.) Покрытие Курс ВПП Частота ILS
062800Асфальтобетон58111.9
242800Асфальтобетон238110.1

Диспетчерские позиции

Позывной Наименование органа УВД Частота
USHH_R_APPХантым-Круг120.4
USHH_TWRХантым-Вышка118.1



Спутниковое изображение